Time,TemperatureF,DewpointF,PressureIn,WindDirection,WindDirectionDegrees,WindSpeedMPH,WindSpeedGustMPH,Humidity,HourlyPrecipIn,Conditions,Clouds,dailyrainin,SoftwareType,DateUTC
2013-02-14 00:02:00,33.0,26.0,29.90,North,350,1.0,4.0,74,-99.99,,,-99.99,,2013-02-14 05:02:00,
2013-02-14 00:11:00,33.0,26.0,29.90,North,350,1.0,4.0,74,-99.99,,,-99.99,,2013-02-14 05:11:00,
2013-02-14 00:22:00,33.0,27.0,29.90,ENE,58,1.0,2.0,78,-99.99,,,-99.99,,2013-02-14 05:22:00,
2013-02-14 00:32:00,33.0,28.0,29.90,East,89,1.0,3.0,80,-99.99,,,-99.99,,2013-02-14 05:32:00,
2013-02-14 00:42:00,33.0,28.0,29.90,East,89,1.0,3.0,80,-99.99,,,-99.99,,2013-02-14 05:42:00,
2013-02-14 00:52:00,32.0,28.0,29.89,NE,51,1.0,3.0,84,-99.99,,,-99.99,,2013-02-14 05:52:00,
2013-02-14 01:02:00,31.0,28.0,29.89,NE,53,2.0,5.0,89,-99.99,,,-99.99,,2013-02-14 06:02:00,
2013-02-14 01:11:00,31.0,29.0,29.89,ENE,71,1.0,4.0,91,-99.99,,,-99.99,,2013-02-14 06:11:00,
2013-02-14 01:21:00,31.0,29.0,29.89,ENE,71,1.0,4.0,91,-99.99,,,-99.99,,2013-02-14 06:21:00,
2013-02-14 01:32:00,30.0,28.0,29.89,East,89,1.0,2.0,92,-99.99,,,-99.99,,2013-02-14 06:32:00,
2013-02-14 01:42:00,30.0,28.0,29.89,East,89,1.0,2.0,92,-99.99,,,-99.99,,2013-02-14 06:42:00,
2013-02-14 01:52:00,30.0,28.0,29.89,NE,44,0.0,2.0,92,-99.99,,,-99.99,,2013-02-14 06:52:00,
2013-02-14 02:01:00,30.0,28.0,29.90,East,89,0.0,4.0,92,-99.99,,,-99.99,,2013-02-14 07:01:00,
2013-02-14 02:11:00,30.0,28.0,29.90,East,89,0.0,4.0,92,-99.99,,,-99.99,,2013-02-14 07:11:00,
2013-02-14 02:21:00,30.0,28.0,29.90,ENE,69,0.0,1.0,92,-99.99,,,-99.99,,2013-02-14 07:21:00,
2013-02-14 02:32:00,30.0,28.0,29.89,East,84,0.0,1.0,92,-99.99,,,-99.99,,2013-02-14 07:32:00,
2013-02-14 02:42:00,30.0,28.0,29.89,East,84,0.0,1.0,92,-99.99,,,-99.99,,2013-02-14 07:42:00,
2013-02-14 02:52:00,30.0,28.0,29.90,East,85,0.0,0.0,93,-99.99,,,-99.99,,2013-02-14 07:52:00,
2013-02-14 03:01:00,29.0,27.0,29.91,NNE,22,0.0,1.0,93,-99.99,,,-99.99,,2013-02-14 08:01:00,
2013-02-14 03:11:00,29.0,27.0,29.91,NNE,22,0.0,1.0,93,-99.99,,,-99.99,,2013-02-14 08:11:00,
2013-02-14 03:22:00,29.0,27.0,29.91,North,6,0.0,1.0,93,-99.99,,,-99.99,,2013-02-14 08:22:00,
2013-02-14 03:32:00,29.0,27.0,29.91,ENE,64,0.0,1.0,93,-99.99,,,-99.99,,2013-02-14 08:32:00,
2013-02-14 03:43:00,29.0,27.0,29.91,ENE,64,0.0,1.0,93,-99.99,,,-99.99,,2013-02-14 08:43:00,
2013-02-14 03:52:00,29.0,27.0,29.92,NNW,340,0.0,2.0,93,-99.99,,,-99.99,,2013-02-14 08:52:00,
2013-02-14 04:02:00,29.0,27.0,29.93,NNE,15,0.0,1.0,93,-99.99,,,-99.99,,2013-02-14 09:02:00,
2013-02-14 04:11:00,29.0,27.0,29.93,NNE,15,0.0,1.0,93,-99.99,,,-99.99,,2013-02-14 09:11:00,
2013-02-14 04:21:00,29.0,27.0,29.93,NNE,23,1.0,3.0,93,-99.99,,,-99.99,,2013-02-14 09:21:00,
2013-02-14 04:32:00,29.0,27.0,29.94,North,351,0.0,2.0,93,-99.99,,,-99.99,,2013-02-14 09:32:00,
2013-02-14 04:42:00,29.0,27.0,29.94,North,351,0.0,2.0,93,-99.99,,,-99.99,,2013-02-14 09:42:00,
2013-02-14 04:52:00,29.0,27.0,29.96,North,351,0.0,1.0,93,-99.99,,,-99.99,,2013-02-14 09:52:00,
2013-02-14 05:02:00,29.0,27.0,29.96,NNE,23,0.0,1.0,93,-99.99,,,-99.99,,2013-02-14 10:02:00,
2013-02-14 05:11:00,29.0,27.0,29.96,NE,39,0.0,1.0,93,-99.99,,,-99.99,,2013-02-14 10:11:00,
2013-02-14 05:21:00,29.0,27.0,29.96,NE,39,0.0,1.0,93,-99.99,,,-99.99,,2013-02-14 10:21:00,
2013-02-14 05:32:00,28.0,26.0,29.95,NE,43,0.0,1.0,93,-99.99,,,-99.99,,2013-02-14 10:32:00,
2013-02-14 05:42:00,28.0,26.0,29.95,NE,43,0.0,1.0,93,-99.99,,,-99.99,,2013-02-14 10:42:00,
2013-02-14 05:52:00,28.0,26.0,29.95,NE,39,0.0,1.0,93,-99.99,,,-99.99,,2013-02-14 10:52:00,
2013-02-14 06:02:00,28.0,26.0,29.97,NNE,23,0.0,1.0,93,-99.99,,,-99.99,,2013-02-14 11:02:00,
2013-02-14 06:11:00,28.0,26.0,29.97,NNE,23,0.0,1.0,93,-99.99,,,-99.99,,2013-02-14 11:11:00,
2013-02-14 06:22:00,28.0,26.0,29.98,NNE,23,0.0,1.0,93,-99.99,,,-99.99,,2013-02-14 11:22:00,
2013-02-14 06:32:00,27.0,25.0,29.98,NNE,23,0.0,0.0,93,-99.99,,,-99.99,,2013-02-14 11:32:00,
2013-02-14 06:42:00,27.0,25.0,29.98,NNE,23,0.0,0.0,93,-99.99,,,-99.99,,2013-02-14 11:42:00,
2013-02-14 06:52:00,27.0,25.0,29.98,NNE,23,0.0,0.0,93,-99.99,,,-99.99,,2013-02-14 11:52:00,
2013-02-14 07:02:00,27.0,25.0,30.00,NNE,23,0.0,1.0,93,-99.99,,,-99.99,,2013-02-14 12:02:00,
2013-02-14 07:12:00,27.0,25.0,30.00,NNE,23,0.0,1.0,93,-99.99,,,-99.99,,2013-02-14 12:12:00,
2013-02-14 07:22:00,27.0,25.0,30.01,NNE,23,0.0,1.0,93,-99.99,,,-99.99,,2013-02-14 12:22:00,
2013-02-14 07:32:00,26.0,24.0,30.02,NNE,23,0.0,0.0,93,-99.99,,,-99.99,,2013-02-14 12:32:00,
2013-02-14 07:42:00,26.0,24.0,30.02,NNE,23,0.0,0.0,93,-99.99,,,-99.99,,2013-02-14 12:42:00,
2013-02-14 07:53:00,27.0,25.0,30.02,North,359,0.0,0.0,93,-99.99,,,-99.99,,2013-02-14 12:53:00,
2013-02-14 08:02:00,28.0,26.0,30.04,NW,309,0.0,1.0,93,-99.99,,,-99.99,,2013-02-14 13:02:00,
2013-02-14 08:11:00,28.0,26.0,30.04,NW,309,0.0,1.0,93,-99.99,,,-99.99,,2013-02-14 13:11:00,
2013-02-14 08:21:00,29.0,27.0,30.04,North,5,0.0,1.0,91,-99.99,,,-99.99,,2013-02-14 13:21:00,
2013-02-14 08:32:00,29.0,26.0,30.04,North,11,1.0,1.0,90,-99.99,,,-99.99,,2013-02-14 13:32:00,
2013-02-14 08:42:00,29.0,26.0,30.04,North,11,1.0,1.0,90,-99.99,,,-99.99,,2013-02-14 13:42:00,
2013-02-14 08:52:00,31.0,27.0,30.07,North,4,1.0,2.0,84,-99.99,,,-99.99,,2013-02-14 13:52:00,
2013-02-14 09:01:00,32.0,28.0,30.08,WNW,302,1.0,2.0,84,-99.99,,,-99.99,,2013-02-14 14:01:00,
2013-02-14 09:11:00,32.0,28.0,30.08,WNW,302,1.0,2.0,84,-99.99,,,-99.99,,2013-02-14 14:11:00,
2013-02-14 09:21:00,33.0,28.0,30.07,NE,45,1.0,2.0,83,-99.99,,,-99.99,,2013-02-14 14:21:00,
2013-02-14 09:32:00,34.0,26.0,30.08,NNW,336,2.0,4.0,73,-99.99,,,-99.99,,2013-02-14 14:32:00,
2013-02-14 09:42:00,34.0,26.0,30.08,NNW,336,2.0,4.0,73,-99.99,,,-99.99,,2013-02-14 14:42:00,
2013-02-14 09:52:00,35.0,26.0,30.08,NW,319,2.0,5.0,68,-99.99,,,-99.99,,2013-02-14 14:52:00,
2013-02-14 10:02:00,35.0,24.0,30.09,NNE,29,2.0,4.0,65,-99.99,,,-99.99,,2013-02-14 15:02:00,
2013-02-14 10:11:00,35.0,24.0,30.09,NNE,29,2.0,4.0,65,-99.99,,,-99.99,,2013-02-14 15:11:00,
2013-02-14 10:21:00,36.0,25.0,30.09,NW,304,1.0,3.0,63,-99.99,,,-99.99,,2013-02-14 15:21:00,
2013-02-14 10:32:00,37.0,25.0,30.09,ENE,60,1.0,4.0,61,-99.99,,,-99.99,,2013-02-14 15:32:00,
2013-02-14 10:42:00,37.0,25.0,30.09,ENE,60,1.0,4.0,61,-99.99,,,-99.99,,2013-02-14 15:42:00,
2013-02-14 10:52:00,37.0,23.0,30.09,NNE,33,2.0,4.0,57,-99.99,,,-99.99,,2013-02-14 15:52:00,
2013-02-14 11:02:00,38.0,23.0,30.10,North,8,2.0,6.0,55,-99.99,,,-99.99,,2013-02-14 16:02:00,
2013-02-14 11:11:00,39.0,24.0,30.10,ENE,73,1.0,5.0,55,-99.99,,,-99.99,,2013-02-14 16:11:00,
2013-02-14 11:21:00,39.0,24.0,30.10,ENE,73,1.0,5.0,55,-99.99,,,-99.99,,2013-02-14 16:21:00,
2013-02-14 11:32:00,38.0,23.0,30.10,NW,314,3.0,5.0,54,-99.99,,,-99.99,,2013-02-14 16:32:00,
2013-02-14 11:42:00,38.0,23.0,30.10,NW,314,3.0,5.0,54,-99.99,,,-99.99,,2013-02-14 16:42:00,
2013-02-14 11:52:00,39.0,23.0,30.11,WNW,296,2.0,5.0,52,-99.99,,,-99.99,,2013-02-14 16:52:00,
2013-02-14 12:01:00,40.0,24.0,30.10,WNW,293,1.0,5.0,53,-99.99,,,-99.99,,2013-02-14 17:01:00,
2013-02-14 12:11:00,40.0,24.0,30.10,WNW,293,1.0,5.0,53,-99.99,,,-99.99,,2013-02-14 17:11:00,
2013-02-14 12:21:00,40.0,24.0,30.10,West,264,2.0,4.0,52,-99.99,,,-99.99,,2013-02-14 17:21:00,
2013-02-14 12:32:00,40.0,22.0,30.09,West,278,1.0,5.0,49,-99.99,,,-99.99,,2013-02-14 17:32:00,
2013-02-14 12:42:00,40.0,22.0,30.09,West,278,1.0,5.0,49,-99.99,,,-99.99,,2013-02-14 17:42:00,
2013-02-14 12:52:00,40.0,22.0,30.09,WSW,243,2.0,4.0,49,-99.99,,,-99.99,,2013-02-14 17:52:00,
2013-02-14 13:02:00,41.0,23.0,30.09,NNW,333,3.0,5.0,49,-99.99,,,-99.99,,2013-02-14 18:02:00,
2013-02-14 13:11:00,41.0,23.0,30.09,NNW,333,3.0,5.0,49,-99.99,,,-99.99,,2013-02-14 18:11:00,
2013-02-14 13:23:00,41.0,23.0,30.09,SW,236,2.0,6.0,48,-99.99,,,-99.99,,2013-02-14 18:23:00,
2013-02-14 13:32:00,43.0,24.0,30.09,NNE,23,0.0,4.0,47,-99.99,,,-99.99,,2013-02-14 18:32:00,
2013-02-14 13:42:00,43.0,24.0,30.09,NNE,23,0.0,4.0,47,-99.99,,,-99.99,,2013-02-14 18:42:00,
2013-02-14 13:52:00,43.0,24.0,30.09,West,267,2.0,4.0,46,-99.99,,,-99.99,,2013-02-14 18:52:00,
2013-02-14 14:02:00,43.0,24.0,30.09,WSW,256,1.0,4.0,46,-99.99,,,-99.99,,2013-02-14 19:02:00,
2013-02-14 14:11:00,43.0,24.0,30.09,WSW,256,1.0,4.0,46,-99.99,,,-99.99,,2013-02-14 19:11:00,
2013-02-14 14:22:00,43.0,25.0,30.10,WSW,250,2.0,6.0,49,-99.99,,,-99.99,,2013-02-14 19:22:00,
2013-02-14 14:32:00,43.0,26.0,30.09,SSW,210,2.0,8.0,51,-99.99,,,-99.99,,2013-02-14 19:32:00,
2013-02-14 14:42:00,43.0,26.0,30.09,SSW,210,2.0,8.0,51,-99.99,,,-99.99,,2013-02-14 19:42:00,
2013-02-14 14:52:00,43.0,26.0,30.10,WSW,253,2.0,8.0,50,-99.99,,,-99.99,,2013-02-14 19:52:00,
2013-02-14 15:01:00,42.0,26.0,30.12,West,264,3.0,9.0,52,-99.99,,,-99.99,,2013-02-14 20:01:00,
2013-02-14 15:11:00,42.0,25.0,30.12,West,267,3.0,9.0,51,-99.99,,,-99.99,,2013-02-14 20:11:00,
2013-02-14 15:21:00,42.0,25.0,30.12,West,267,3.0,9.0,51,-99.99,,,-99.99,,2013-02-14 20:21:00,
2013-02-14 15:32:00,42.0,25.0,30.11,West,281,2.0,5.0,50,-99.99,,,-99.99,,2013-02-14 20:32:00,
2013-02-14 15:42:00,42.0,25.0,30.11,West,281,2.0,5.0,50,-99.99,,,-99.99,,2013-02-14 20:42:00,
2013-02-14 15:52:00,41.0,25.0,30.11,WNW,293,2.0,5.0,53,-99.99,,,-99.99,,2013-02-14 20:52:00,
2013-02-14 16:02:00,40.0,26.0,30.13,WSW,248,2.0,6.0,56,-99.99,,,-99.99,,2013-02-14 21:02:00,
2013-02-14 16:11:00,40.0,26.0,30.13,WSW,248,2.0,6.0,56,-99.99,,,-99.99,,2013-02-14 21:11:00,
2013-02-14 16:21:00,39.0,25.0,30.13,ENE,58,3.0,9.0,57,-99.99,,,-99.99,,2013-02-14 21:21:00,
2013-02-14 16:32:00,39.0,25.0,30.14,West,259,2.0,6.0,57,-99.99,,,-99.99,,2013-02-14 21:32:00,
2013-02-14 16:42:00,39.0,25.0,30.14,West,259,2.0,6.0,57,-99.99,,,-99.99,,2013-02-14 21:42:00,
2013-02-14 16:51:00,38.0,24.0,30.14,SSW,211,2.0,7.0,56,-99.99,,,-99.99,,2013-02-14 21:51:00,
2013-02-14 17:02:00,38.0,25.0,30.14,West,274,2.0,8.0,58,-99.99,,,-99.99,,2013-02-14 22:02:00,
2013-02-14 17:11:00,37.0,24.0,30.14,WNW,287,1.0,5.0,59,-99.99,,,-99.99,,2013-02-14 22:11:00,
2013-02-14 17:21:00,37.0,24.0,30.14,WNW,287,1.0,5.0,59,-99.99,,,-99.99,,2013-02-14 22:21:00,
2013-02-14 17:32:00,37.0,25.0,30.15,WSW,250,1.0,4.0,61,-99.99,,,-99.99,,2013-02-14 22:32:00,
2013-02-14 17:42:00,37.0,25.0,30.15,WSW,250,1.0,4.0,61,-99.99,,,-99.99,,2013-02-14 22:42:00,
2013-02-14 17:52:00,36.0,24.0,30.16,West,263,0.0,5.0,62,-99.99,,,-99.99,,2013-02-14 22:52:00,
2013-02-14 18:01:00,35.0,24.0,30.17,SW,233,0.0,3.0,64,-99.99,,,-99.99,,2013-02-14 23:01:00,
2013-02-14 18:11:00,35.0,24.0,30.17,SW,233,0.0,3.0,64,-99.99,,,-99.99,,2013-02-14 23:11:00,
2013-02-14 18:21:00,34.0,23.0,30.16,SW,226,0.0,1.0,65,-99.99,,,-99.99,,2013-02-14 23:21:00,
2013-02-14 18:32:00,34.0,24.0,30.16,SW,225,0.0,0.0,67,-99.99,,,-99.99,,2013-02-14 23:32:00,
2013-02-14 18:42:00,34.0,24.0,30.16,SW,225,0.0,0.0,67,-99.99,,,-99.99,,2013-02-14 23:42:00,
2013-02-14 18:52:00,33.0,23.0,30.16,SW,226,0.0,0.0,67,-99.99,,,-99.99,,2013-02-14 23:52:00,
2013-02-14 19:01:00,33.0,24.0,30.16,SW,225,0.0,0.0,68,-99.99,,,-99.99,,2013-02-15 00:01:00,
2013-02-14 19:11:00,33.0,24.0,30.16,SW,225,0.0,0.0,68,-99.99,,,-99.99,,2013-02-15 00:11:00,
2013-02-14 19:22:00,32.0,24.0,30.17,SW,225,0.0,1.0,71,-99.99,,,-99.99,,2013-02-15 00:22:00,
2013-02-14 19:32:00,33.0,25.0,30.18,NW,315,0.0,1.0,72,-99.99,,,-99.99,,2013-02-15 00:32:00,
2013-02-14 19:42:00,33.0,25.0,30.18,NW,315,0.0,1.0,72,-99.99,,,-99.99,,2013-02-15 00:42:00,
2013-02-14 19:52:00,33.0,26.0,30.19,WSW,253,0.0,2.0,74,-99.99,,,-99.99,,2013-02-15 00:52:00,
2013-02-14 20:02:00,33.0,26.0,30.17,West,278,0.0,1.0,76,-99.99,,,-99.99,,2013-02-15 01:02:00,
2013-02-14 20:11:00,33.0,26.0,30.17,West,278,0.0,1.0,76,-99.99,,,-99.99,,2013-02-15 01:11:00,
2013-02-14 20:21:00,33.0,27.0,30.18,West,278,0.0,2.0,78,-99.99,,,-99.99,,2013-02-15 01:21:00,
2013-02-14 20:32:00,33.0,28.0,30.17,West,274,0.0,3.0,82,-99.99,,,-99.99,,2013-02-15 01:32:00,
2013-02-14 20:41:00,33.0,28.0,30.17,West,274,0.0,3.0,82,-99.99,,,-99.99,,2013-02-15 01:41:00,
2013-02-14 20:51:00,33.0,28.0,30.18,West,269,0.0,3.0,82,-99.99,,,-99.99,,2013-02-15 01:51:00,
2013-02-14 21:01:00,33.0,29.0,30.19,WSW,255,0.0,2.0,84,-99.99,,,-99.99,,2013-02-15 02:01:00,
2013-02-14 21:11:00,33.0,29.0,30.19,WSW,255,0.0,2.0,84,-99.99,,,-99.99,,2013-02-15 02:11:00,
2013-02-14 21:21:00,33.0,29.0,30.18,West,269,0.0,2.0,84,-99.99,,,-99.99,,2013-02-15 02:21:00,
2013-02-14 21:32:00,32.0,28.0,30.18,West,264,0.0,2.0,85,-99.99,,,-99.99,,2013-02-15 02:32:00,
2013-02-14 21:42:00,32.0,28.0,30.18,West,264,0.0,2.0,85,-99.99,,,-99.99,,2013-02-15 02:42:00,
2013-02-14 21:52:00,32.0,28.0,30.19,West,269,0.0,1.0,86,-99.99,,,-99.99,,2013-02-15 02:52:00,
2013-02-14 22:02:00,32.0,29.0,30.19,West,269,0.0,1.0,87,-99.99,,,-99.99,,2013-02-15 03:02:00,
2013-02-14 22:11:00,32.0,29.0,30.19,West,269,0.0,1.0,87,-99.99,,,-99.99,,2013-02-15 03:11:00,
2013-02-14 22:22:00,32.0,29.0,30.19,West,270,0.0,1.0,87,-99.99,,,-99.99,,2013-02-15 03:22:00,
2013-02-14 22:32:00,33.0,30.0,30.18,West,269,0.0,1.0,87,-99.99,,,-99.99,,2013-02-15 03:32:00,
2013-02-14 22:42:00,33.0,30.0,30.18,West,269,0.0,1.0,87,-99.99,,,-99.99,,2013-02-15 03:42:00,
2013-02-14 22:52:00,33.0,30.0,30.18,WSW,256,0.0,1.0,88,-99.99,,,-99.99,,2013-02-15 03:52:00,
2013-02-14 23:01:00,33.0,30.0,30.18,WSW,239,0.0,1.0,89,-99.99,,,-99.99,,2013-02-15 04:01:00,
2013-02-14 23:11:00,33.0,30.0,30.18,WSW,239,0.0,1.0,89,-99.99,,,-99.99,,2013-02-15 04:11:00,
2013-02-14 23:21:00,33.0,30.0,30.18,West,266,0.0,2.0,89,-99.99,,,-99.99,,2013-02-15 04:21:00,
2013-02-14 23:32:00,33.0,30.0,30.18,West,280,0.0,1.0,89,-99.99,,,-99.99,,2013-02-15 04:32:00,
2013-02-14 23:42:00,33.0,30.0,30.18,West,280,0.0,1.0,89,-99.99,,,-99.99,,2013-02-15 04:42:00,
2013-02-14 23:52:00,34.0,31.0,30.18,WSW,239,0.0,1.0,90,-99.99,,,-99.99,,2013-02-15 04:52:00,